Regional Weather Roundup
Issued by NWS

Home | Current Version | Previous Version | Text Only | Print | Product List | Glossary Off
Versions: 1 2 3 4 5 6 7 8 9 10 11 12 13 14 15 16 17 18 19 20 21 22 23 24 25 26 27

000
ASUS45 KSLC 290210
RWRUT

UTAH REGIONAL WEATHER ROUNDUP
NATIONAL WEATHER SERVICE SALT LAKE CITY UT
800 PM MDT THU JUL 28 2016

UTZ001>011-023>025-290300-

NORTHERN UTAH

CITY           SKY/WX    TMP DP  RH WIND       PRES   REMARKS
BRIGHAM CITY     N/A     94  28   9 NW9       30.02R
HILL AFB       CLEAR     92  38  15 W6        30.06F
LOGAN          CLEAR     87  47  24 N6        30.03F
OGDEN          CLEAR     92  37  14 W6        30.02S
PROVO AIRPORT  CLEAR     93  41  16 NW9       30.03S
SALT LAKE CITY CLEAR     98  31   9 N7        30.00S HX  92
VERNAL         CLEAR     90  31  12 N10       30.04R
WENDOVER       PTCLDY    97  36  11 S3        30.00S HX  92
HEBER CITY     CLEAR     88  34  14 N5        30.12S
WEST JORDAN    CLEAR     93  37  14 CALM      30.05S

$$

UTZ012>022-026-027-290300-

SOUTHERN/CENTRAL UTAH

CITY           SKY/WX    TMP DP  RH WIND       PRES   REMARKS
BLANDING       PTCLDY    90  30  11 NW9       30.18S
BRYCE CANYON   PTCLDY    85  30  13 NW3       30.32S
CEDAR CITY     MOCLDY    91  33  12 W5        30.11S
DELTA          CLEAR     97  27   8 NW13      30.02S HX  90
MILFORD        PTCLDY    96  23   7 N10       30.03S HX  90
MOAB/CYNLANDS  CLEAR     99  25   7 NW6       29.94F HX  92
PRICE          CLEAR     93  26   9 NW14      30.12S
ST GEORGE      CLEAR    100  45  15 SW15      29.90R HX  96

$$

REGIONAL REPORTS     COLORADO/ARIZONA

CITY           SKY/WX    TMP DP  RH WIND       PRES   REMARKS
CRAIG, CO      PTCLDY    81  29  15 NW6       30.13S
GRAND JUNCTION MOCLDY    93  26   9 W5        29.98F
RIFLE          MOCLDY    90  28  11 NW7       30.05R
MONTROSE       PTCLDY    87  39  18 S7        30.10S
CORTEZ         PTCLDY    82  43  25 NW6       30.11S
PAGE, AZ       PTCLDY   102  29   7 NW9       29.95S HX  95
GRAND CANYON   MOCLDY    82  41  23 CALM      30.25S
KINGMAN        MOCLDY    93  46  19 E24G40    29.98F
FLAGSTAFF      CLOUDY    79  45  29 SW7       30.27R

$$

REGIONAL REPORTS    NEVADA/IDAHO/WYOMING

CITY           SKY/WX    TMP DP  RH WIND       PRES   REMARKS
LAS VEGAS, NV  MOCLDY   110  37   8 NW16G22   29.75R HX 103
ELY            MOCLDY    88  28  11 W6        30.18R
ELKO           SUNNY     97  26   8 W10       30.05F HX  91
POCATELLO, ID  CLEAR     90  38  16 SW13      30.04S
BURLEY         CLEAR     84  48  28 W9        30.01F
EVANSTON, WY   CLEAR     81  29  15 NW9       30.27S
ROCK SPRINGS   CLEAR     83  19   9 W14       30.20R
KEMMERER         N/A     77  21  12 NW14      30.28S

$$




USA.gov is the U.S. government's official web portal to all federal, state and local government web resources and services.